Location: Albany
(35.0170°S, 117.8920°E)
Time: 17:15:29
(UTC+08:00)

Explorer 11/Cluster Stage 4 - Pass Details

Date: 26 January 2021
Orbit: 467 x 1257 km, 28.8° (Epoch: 02 March)

Event Time Altitude Azimuth Distance (km) Brightness Sun altitude
Rises 11:59:51 0° 276° (W) 3,042 9.6 73.0°
Reaches altitude 10° 12:02:51 10° 290° (WNW) 1,984 8.8 73.2°
Maximum altitude 12:06:21 22° 341° (NNW) 1,237 8.2 73.3°
Drops below altitude 10° 12:09:27 10° 33° (NNE) 1,729 8.7 73.4°
Sets 12:11:52 0° 49° (NE) 2,547 9.4 73.5°
